CW0009 Weather Reports


Display with metric or nautical units.
time (UTC)temp
F
wind
direction
speed
MPH
gust
MPH
rain 1hr
in
rain 24hr
in
rain mn
in
humidity
%
barometer
mb
20180522175013 65 110 0.0 0.0 0.00 0.00 0.00 78 1014.0
20180522174012 65 110 0.0 0.0 0.00 0.00 0.00 78 1014.0
20180522173014 65 110 0.0 0.0 0.00 0.00 0.00 78 1014.0
20180522172034 66 110 0.0 0.0 0.00 0.00 0.00 78 1014.0
20180522171012 66 110 0.0 0.0 0.00 0.00 0.00 77 1014.0
20180522170012 67 110 0.0 0.0 0.00 0.00 0.00 77 1014.0
20180522165033 67 110 0.0 0.0 0.00 0.20 0.00 76 1014.0
20180522164012 68 110 0.0 0.0 0.00 0.24 0.00 75 1014.0
20180522162013 68 110 0.0 0.0 0.00 0.24 0.00 74 1014.0
20180522161034 69 110 0.0 0.0 0.00 0.24 0.00 74 1014.0
20180522160033 69 110 0.0 0.0 0.00 0.24 0.00 73 1014.0
20180522155013 70 110 0.0 0.0 0.00 0.24 0.00 72 1014.0
20180522154012 71 125 0.0 1.0 0.00 0.24 0.00 72 1014.0
20180522153014 72 130 1.0 0.0 0.00 0.24 0.00 71 1013.0
20180522152033 72 100 3.0 2.0 0.00 0.24 0.00 71 1013.0
20180522151013 73 75 2.0 13.0 0.00 0.24 0.00 71 1013.0
20180522150011 74 65 0.0 1.0 0.00 0.24 0.00 72 1012.0
20180522145013 74 25 0.0 1.0 0.00 0.24 0.00 72 1012.0
20180522144033 74 15 2.0 1.0 0.00 0.24 0.00 72 1012.0
20180522143013 74 35 2.0 12.0 0.00 0.24 0.00 71 1012.0
20180522142011 74 20 2.0 12.0 0.00 0.24 0.00 70 1012.0
20180522141012 75 350 2.0 1.0 0.00 0.24 0.00 69 1012.0
20180522140034 76 25 1.0 9.0 0.00 0.24 0.00 70 1012.0
20180522135011 77 5 0.0 0.0 0.00 0.24 0.00 69 1012.0
20180522134013 77 40 0.0 0.0 0.00 0.24 0.00 69 1012.0
20180522133016 77 40 0.0 0.0 0.00 0.24 0.00 70 1012.0
20180522132033 77 40 0.0 0.0 0.00 0.24 0.00 70 1011.0
20180522131011 78 40 0.0 0.0 0.00 0.24 0.00 70 1011.0
20180522130032 78 40 0.0 0.0 0.00 0.24 0.00 70 1012.0
20180522125033 78 40 0.0 0.0 0.00 0.24 0.00 71 1012.0
20180522124011 78 40 0.0 0.0 0.00 0.24 0.00 71 1012.0
20180522123013 79 35 0.0 2.0 0.00 0.24 0.00 70 1012.0
20180522122012 79 40 0.0 0.0 0.00 0.24 0.00 71 1012.0
20180522121011 79 40 0.0 0.0 0.00 0.24 0.00 71 1012.0
20180522120011 79 40 0.0 0.0 0.00 0.24 0.00 70 1012.0
20180522115012 79 35 0.0 0.0 0.00 0.24 0.00 71 1012.0
20180522114011 80 40 0.0 0.0 0.00 0.24 0.00 71 1012.0
20180522113013 79 40 0.0 0.0 0.00 0.24 0.00 72 1012.0
20180522112011 79 40 0.0 0.0 0.00 0.24 0.00 72 1012.0
20180522111012 79 40 0.0 0.0 0.00 0.24 0.00 73 1012.0
20180522110032 79 40 0.0 0.0 0.00 0.24 0.00 73 1012.0
20180522104012 79 30 0.0 0.0 0.00 0.24 0.00 74 1012.0
20180522103012 78 30 0.0 0.0 0.00 0.24 0.00 75 1012.0
20180522102032 78 30 0.0 0.0 0.00 0.24 0.00 75 1012.0
20180522101011 77 30 0.0 0.0 0.00 0.24 0.00 75 1012.0
20180522100010 76 30 0.0 0.0 0.00 0.24 0.00 76 1012.0
20180522095011 75 30 0.0 0.0 0.00 0.24 0.00 76 1012.0
20180522094011 74 30 0.0 0.0 0.00 0.24 0.00 76 1012.0
20180522093013 73 30 0.0 0.0 0.00 0.24 0.00 77 1012.0
20180522092011 72 30 0.0 0.0 0.00 0.24 0.00 77 1012.0
20180522091032 71 30 0.0 0.0 0.00 0.24 0.00 77 1012.0
20180522090012 70 90 0.0 0.0 0.00 0.24 0.00 78 1012.0
20180522085012 70 90 0.0 0.0 0.00 0.24 0.00 78 1012.0
20180522084012 69 75 0.0 0.0 0.00 0.24 0.00 78 1012.0
20180522083012 68 40 0.0 0.0 0.00 0.24 0.00 78 1012.0
20180522082013 68 40 0.0 0.0 0.00 0.24 0.00 78 1012.0
20180522081015 68 40 0.0 0.0 0.00 0.24 0.00 78 1012.0
20180522080013 68 40 0.0 0.0 0.00 0.24 0.00 78 1012.0
20180522075033 68 40 0.0 0.0 0.00 0.24 0.00 78 1012.0
20180522074032 68 40 0.0 0.0 0.00 0.24 0.00 78 1012.0
20180522073035 67 40 0.0 0.0 0.00 0.24 0.00 79 1012.0
20180522072012 67 40 0.0 0.0 0.00 0.24 0.00 79 1012.0
20180522071012 67 40 0.0 0.0 0.00 0.24 0.00 79 1012.0
20180522070011 65 40 0.0 0.0 0.00 0.24 0.00 79 1012.0
20180522065034 64 40 0.0 0.0 0.00 0.24 0.00 79 1012.0
20180522064012 63 40 0.0 0.0 0.00 0.24 0.00 79 1012.0
20180522063013 61 40 0.0 0.0 0.00 0.24 0.00 80 1012.0
20180522062012 60 40 0.0 0.0 0.00 0.24 0.00 80 1012.0
20180522061013 59 40 0.0 0.0 0.00 0.24 0.00 80 1011.0
20180522060032 58 40 0.0 0.0 0.00 0.24 0.00 80 1011.0
20180522055012 57 40 0.0 0.0 0.00 0.24 0.00 80 1011.0
20180522054012 57 40 0.0 0.0 0.00 0.24 0.00 81 1011.0
20180522053035 57 40 0.0 0.0 0.00 0.24 0.00 80 1011.0
20180522052013 56 40 0.0 0.0 0.00 0.24 0.00 80 1011.0
20180522051012 56 40 0.0 0.0 0.00 0.26 0.00 80 1011.0
20180522050011 56 40 0.0 0.0 0.00 0.26 0.00 81 1011.0
20180522044013 56 40 0.0 0.0 0.00 0.26 0.00 81 1011.0
20180522043013 55 40 0.0 0.0 0.00 0.26 0.00 81 1011.0
20180522042011 55 40 0.0 0.0 0.00 0.26 0.00 81 1011.0
20180522041013 56 40 0.0 0.0 0.00 0.26 0.00 81 1011.0
20180522040011 55 40 0.0 0.0 0.00 0.26 0.00 81 1011.0
20180522035032 56 40 0.0 0.0 0.00 0.26 0.00 81 1011.0
20180522034013 56 40 0.0 0.0 0.00 0.26 0.00 81 1011.0
20180522033014 56 40 0.0 0.0 0.00 0.26 0.00 81 1011.0
20180522032011 56 40 0.0 0.0 0.00 0.26 0.00 81 1011.0
20180522031013 56 40 0.0 0.0 0.00 0.26 0.00 81 1011.0
20180522030010 56 40 0.0 0.0 0.00 0.26 0.00 81 1011.0
20180522025011 56 40 0.0 0.0 0.00 0.26 0.00 81 1011.0
20180522024033 56 40 0.0 0.0 0.00 0.26 0.00 81 1011.0
20180522023013 56 40 0.0 0.0 0.00 0.26 0.00 80 1011.0
20180522021012 57 40 0.0 0.0 0.00 0.26 0.00 80 1011.0
20180522020034 57 40 0.0 0.0 0.00 0.26 0.00 80 1011.0
20180522015032 57 40 0.0 0.0 0.00 0.26 0.00 80 1011.0
20180522014012 57 40 0.0 0.0 0.00 0.26 0.00 80 1011.0
20180522013015 57 40 0.0 0.0 0.00 0.26 0.00 81 1011.0
20180522012013 57 40 0.0 0.0 0.00 0.26 0.00 81 1011.0
20180522011013 57 40 0.0 0.0 0.00 0.26 0.00 81 1011.0
20180522010012 57 40 0.0 0.0 0.00 0.26 0.00 81 1011.0
20180522005013 58 40 0.0 0.0 0.00 0.26 0.00 81 1011.0
20180522004013 58 40 0.0 0.0 0.00 0.26 0.00 81 1011.0
20180522003034 58 40 0.0 0.0 0.00 0.26 0.00 81 1011.0
20180522002012 58 40 0.0 0.0 0.00 0.26 0.00 80 1011.0
20180522001033 58 40 0.0 0.0 0.00 0.26 0.00 80 1011.0
20180522000031 58 40 0.0 0.0 0.00 0.26 0.00 80 1011.0
20180521235013 58 40 0.0 0.0 0.00 0.26 0.00 80 1011.0
20180521234013 59 40 0.0 0.0 0.00 0.26 0.00 80 1011.0
20180521233013 59 40 0.0 0.0 0.00 0.26 0.00 80 1011.0
20180521232032 59 40 0.0 0.0 0.00 0.26 0.00 80 1011.0
20180521231013 59 40 0.0 0.0 0.00 0.26 0.00 80 1011.0
20180521230012 59 40 0.0 0.0 0.00 0.26 0.00 80 1011.0
20180521225032 59 40 0.0 0.0 0.00 0.26 0.00 80 1011.0
20180521224013 59 40 0.0 0.0 0.00 0.26 0.00 80 1011.0
20180521223028 60 40 0.0 0.0 0.00 0.26 0.00 80 1011.0
20180521221012 60 40 0.0 0.0 0.00 0.26 0.00 80 1012.0
20180521220033 60 40 0.0 0.0 0.00 0.26 0.26 80 1012.0
20180521215011 60 40 0.0 0.0 0.00 0.26 0.26 80 1011.0
20180521214034 60 40 0.0 0.0 0.00 0.26 0.26 80 1011.0
20180521213014 61 40 0.0 0.0 0.00 0.26 0.26 80 1012.0
20180521212013 61 40 0.0 0.0 0.00 0.26 0.26 80 1012.0
20180521211014 61 40 0.0 0.0 0.00 0.26 0.26 80 1012.0
20180521210012 76 40 0.0 0.0 0.00 0.26 0.26 62 1012.0
20180521205013 76 40 0.0 0.0 0.00 0.26 0.26 62 1012.0
20180521204012 76 40 0.0 0.0 0.00 0.26 0.26 62 1012.0
20180521203036 76 40 0.0 0.0 0.00 0.26 0.26 62 1011.0
20180521202012 76 40 0.0 0.0 0.00 0.27 0.26 62 1011.0
20180521201033 76 40 0.0 0.0 0.00 0.30 0.26 62 1011.0
20180521200012 63 40 0.0 0.0 0.00 0.30 0.26 79 1011.0
20180521195011 63 40 0.0 0.0 0.00 0.30 0.26 79 1011.0
20180521194011 63 40 0.0 0.0 0.00 0.30 0.26 79 1011.0
20180521193033 64 40 0.0 0.0 0.00 0.30 0.26 79 1011.0
20180521192033 64 40 0.0 0.0 0.00 0.30 0.26 79 1011.0
20180521191012 64 40 0.0 0.0 0.00 0.30 0.26 79 1011.0
20180521190011 64 40 0.0 0.0 0.00 0.30 0.26 79 1011.0
20180521185012 64 40 0.0 0.0 0.00 0.30 0.26 79 1011.0
20180521184033 65 40 0.0 0.0 0.00 0.30 0.26 78 1011.0
20180521183013 65 40 0.0 0.0 0.00 0.30 0.26 78 1011.0
20180521182012 65 40 0.0 0.0 0.00 0.33 0.26 78 1011.0
20180521181013 66 40 0.0 0.0 0.00 0.33 0.26 78 1011.0
20180521180011 66 40 0.0 0.0 0.20 0.33 0.26 78 1011.0